Theta_e
310 308 307 307 307 308 309 312 313 314 315 315 316 317 317 318 319 319 319 319 318 317 317 316 317 317 316 317 316 315 316 315 316 316 320 321 318 320 324 326 329 330 329 327 324 323 326 333 338 334 336 344 342 343 344 341 343 346 353 342 332 332 325 326 331 334 341 344 347 348 348 350 352 352 349 352 351 351 351 348 349 351 353 354 355 357 357 359
309 308 307 307 307 308 309 311 313 314 314 315 315 316 317 318 319 319 320 319 318 318 317 317 317 317 317 316 316 317 316 317 322 324 323 318 318 320 322 325 328 329 328 326 324 327 331 338 337 335 344 348 340 337 336 335 340 347 348 334 334 340 327 324 332 337 344 346 346 347 347 349 350 350 348 354 356 354 356 352 352 356 356 354 355 356 357 358
309 308 308 308 308 309 310 312 313 314 314 315 315 315 317 318 319 320 320 319 318 318 318 317 317 316 315 315 317 316 317 321 328 330 322 319 320 318 321 327 329 329 326 325 325 327 332 335 334 339 346 344 337 334 331 333 339 340 339 336 339 342 328 327 337 342 346 344 347 347 346 349 349 348 350 355 356 356 360 355 356 359 357 355 354 354 357 358
309 308 308 308 309 310 311 312 313 314 315 315 315 315 317 318 319 319 320 320 318 318 318 317 316 316 314 315 317 317 321 326 322 320 325 328 325 318 320 324 326 328 326 325 324 325 330 333 336 343 343 340 337 330 329 336 337 330 334 336 332 334 331 333 340 345 345 346 348 348 348 349 346 348 351 355 360 360 357 353 356 358 357 355 354 354 357 360
309 309 309 309 310 311 312 313 313 315 314 315 315 316 317 317 319 319 320 319 318 317 317 316 316 316 315 315 316 319 323 323 319 328 333 334 329 323 318 320 322 324 327 326 325 326 333 338 342 346 339 336 338 332 331 333 331 325 329 331 326 331 336 336 342 347 347 347 349 349 349 349 348 351 350 353 363 362 354 351 353 355 355 354 353 354 357 360
308 309 309 309 311 312 313 314 314 314 315 315 315 316 316 317 318 319 320 318 318 318 316 315 315 314 316 315 316 321 324 317 323 330 330 331 329 325 321 319 320 323 327 328 327 332 340 344 345 348 341 338 337 333 330 327 325 327 325 325 324 332 342 340 345 348 346 349 350 350 349 350 356 358 355 359 363 358 352 351 352 353 354 353 353 352 355 359
309 308 309 310 311 312 314 315 315 316 316 315 315 316 316 316 318 319 319 317 317 316 314 314 313 314 315 316 318 324 326 320 322 322 324 329 327 323 321 319 318 323 328 327 332 340 347 347 346 347 341 335 331 326 327 325 325 328 325 326 326 336 344 343 346 348 347 351 349 350 352 354 362 362 362 366 359 353 351 349 351 352 352 352 352 351 354 357
310 309 309 310 311 313 314 316 317 316 317 317 316 316 316 316 318 319 318 317 317 315 314 312 313 314 316 320 325 327 326 321 318 321 321 323 327 323 320 319 319 326 328 327 336 344 345 347 345 341 335 330 326 324 323 323 325 328 327 325 325 335 343 343 346 348 349 351 349 355 358 361 362 361 364 364 354 352 352 349 350 351 351 352 351 352 354 356
311 311 310 310 311 313 315 317 317 318 318 318 317 317 316 317 318 319 317 317 316 314 313 312 313 315 318 324 331 322 321 321 320 322 322 325 328 325 323 324 324 328 328 329 335 337 339 343 341 334 331 331 326 324 325 323 324 326 328 327 329 338 343 344 347 349 350 350 353 359 361 361 360 363 367 361 351 352 352 349 350 350 350 351 351 352 354 354
311 311 310 310 311 313 315 317 318 318 319 319 319 319 318 318 319 319 317 317 316 313 313 313 314 316 320 327 330 321 324 325 325 325 325 326 327 327 327 326 328 328 327 332 334 335 339 341 338 332 331 333 327 325 326 323 323 325 327 329 335 339 341 344 348 351 353 350 353 359 362 361 361 370 372 359 351 352 352 352 351 350 350 350 351 353 353 352
310 310 310 311 311 312 315 317 319 319 320 320 320 320 319 319 319 318 317 316 315 313 313 313 314 318 324 330 330 330 331 326 328 326 325 326 326 327 326 326 327 325 326 334 334 333 335 335 334 330 329 329 325 326 326 324 325 326 327 328 331 336 335 341 349 353 353 352 353 359 362 363 364 371 371 358 351 351 353 354 352 353 353 352 352 354 353 352
308 309 310 310 310 312 315 317 319 320 320 321 321 321 321 321 320 318 316 315 315 314 313 314 318 323 330 334 333 332 330 328 328 325 325 326 324 325 324 325 326 323 328 333 332 330 331 331 328 326 326 325 325 327 325 325 326 326 328 330 330 335 337 341 349 350 352 355 354 359 365 366 369 367 363 358 352 354 357 358 359 360 359 356 354 354 354 352
307 308 309 309 310 312 314 317 319 320 321 322 322 322 322 323 320 317 316 317 315 313 314 314 318 325 333 340 335 329 329 330 328 325 325 325 325 326 324 327 329 327 327 331 331 328 329 331 326 325 327 324 325 326 325 327 327 327 330 335 333 332 336 338 341 346 354 356 350 360 365 362 367 363 360 358 355 359 362 363 363 364 362 359 357 356 356 353
306 307 308 309 309 311 313 317 319 320 322 323 324 325 326 325 320 316 317 317 316 315 315 314 319 327 336 342 335 329 332 330 326 327 326 326 327 326 326 327 330 329 330 331 332 331 331 330 326 326 325 325 326 325 329 331 330 328 327 333 335 326 328 334 339 350 359 352 349 363 362 360 366 361 359 357 356 361 364 363 363 364 363 362 360 358 358 357
306 307 308 308 309 311 312 316 319 321 323 323 326 328 326 324 319 317 317 318 317 315 315 317 322 329 339 342 331 327 331 329 328 329 327 328 329 329 329 327 328 329 330 330 331 332 331 328 324 325 326 328 329 330 335 334 335 334 322 322 329 323 327 335 338 349 355 347 351 363 359 358 363 360 358 358 357 362 364 364 363 363 363 363 364 363 363 362
305 305 307 308 309 310 312 316 319 321 323 324 328 329 324 319 317 318 319 319 319 315 319 326 325 327 337 336 328 326 330 330 329 330 328 329 329 330 330 327 329 329 329 330 329 329 328 327 326 328 328 327 332 339 338 335 339 343 328 319 324 323 327 333 337 344 347 347 352 359 360 359 361 360 359 359 359 363 365 364 364 362 362 362 362 362 363 364
306 305 306 307 308 310 312 316 318 321 325 324 328 330 323 318 318 318 318 320 321 316 321 328 325 327 333 328 327 327 328 330 329 329 329 329 329 329 330 329 330 328 327 328 327 328 325 326 326 326 330 329 333 339 329 323 327 333 329 323 323 327 328 330 336 341 342 348 354 355 360 359 360 361 359 360 360 363 366 363 363 363 362 362 360 360 362 363
305 305 306 307 308 310 312 316 319 323 326 324 328 329 323 319 319 320 321 324 325 324 325 328 326 327 326 326 330 325 325 329 327 329 329 329 329 329 329 330 329 327 326 327 326 328 326 327 331 331 335 332 332 337 325 320 322 323 323 319 319 326 330 331 336 343 344 349 353 353 356 357 358 360 360 360 361 364 366 364 363 363 361 361 361 361 362 362
305 306 306 307 308 310 312 315 320 325 327 326 328 329 326 322 321 322 324 328 332 333 336 337 335 329 323 328 331 325 326 326 326 327 328 330 329 328 329 326 328 327 326 327 327 327 325 329 334 330 331 332 330 333 328 326 328 325 323 321 319 322 327 334 340 343 345 347 351 353 352 355 357 358 362 362 362 364 365 363 362 362 361 361 361 362 362 362
306 305 306 307 308 309 312 314 320 326 328 326 326 329 329 328 332 332 329 333 335 332 333 337 339 336 330 332 329 327 328 325 326 327 326 328 327 326 328 325 326 326 326 330 327 326 328 328 330 327 329 333 330 327 327 329 329 327 326 324 323 323 325 337 345 341 344 348 349 354 353 355 358 359 363 362 361 364 365 364 363 361 361 361 362 363 363 363
305 305 306 306 307 309 312 314 320 326 327 326 325 328 330 327 334 335 331 335 334 330 332 333 333 334 332 330 328 327 326 327 326 326 326 326 327 326 327 326 326 326 327 329 327 329 331 325 327 331 329 330 326 326 327 326 326 325 327 325 323 325 329 338 345 340 342 348 347 355 357 356 359 360 362 362 361 363 364 364 363 361 362 361 362 362 362 361
304 305 305 306 307 309 311 313 321 327 326 326 324 325 327 324 327 328 328 333 332 328 330 330 328 330 329 328 329 327 324 327 326 325 326 324 326 327 327 328 328 331 329 325 327 330 328 326 329 329 325 325 325 327 327 327 328 327 326 324 320 325 330 334 341 341 340 346 347 352 355 354 357 357 357 358 359 360 359 360 361 360 362 362 360 360 360 361
304 304 305 306 307 308 312 314 322 328 326 327 326 324 325 326 328 326 327 332 333 330 330 330 330 331 331 327 328 326 323 327 326 326 325 323 326 326 327 329 328 331 326 325 329 323 321 328 331 327 324 324 326 329 329 326 328 329 329 324 319 326 329 325 332 339 342 345 347 350 353 353 355 355 357 356 356 358 357 357 357 357 361 362 359 358 360 360
304 304 304 306 306 309 312 314 323 327 326 327 326 326 328 328 330 328 329 333 334 333 332 330 330 331 331 327 325 325 324 325 327 326 324 325 327 325 328 331 327 327 327 328 330 325 325 328 329 328 326 327 326 326 329 328 322 325 331 326 321 325 328 328 332 341 345 343 346 350 348 350 353 355 360 360 357 358 357 358 358 355 357 359 359 358 359 359
304 304 305 306 306 309 311 316 325 324 324 326 326 329 329 329 330 327 332 334 332 337 333 325 327 327 327 325 323 324 325 325 326 326 324 326 326 325 327 328 326 328 328 327 327 328 329 327 327 329 330 329 327 326 328 329 321 320 327 330 330 328 329 334 338 344 343 338 344 347 339 344 355 357 361 361 361 360 357 359 361 360 358 359 362 359 356 355
303 304 305 305 306 307 313 323 323 319 324 326 326 330 327 330 332 327 335 337 327 333 332 322 326 325 323 324 323 324 324 325 327 323 324 325 325 326 326 327 328 328 329 329 327 328 328 327 328 330 330 330 330 328 327 331 324 317 323 331 334 331 328 333 340 342 338 336 342 346 345 345 348 353 363 364 363 363 359 359 360 359 359 358 359 357 354 354
304 305 305 306 306 306 313 321 317 318 327 328 327 329 327 331 330 327 337 334 324 329 329 322 324 323 324 323 323 325 323 325 327 323 325 327 324 325 325 328 327 323 329 329 323 326 327 327 328 330 334 333 330 326 326 336 327 317 323 331 332 330 327 330 334 333 335 337 338 343 351 348 343 350 363 364 364 364 361 361 359 357 357 356 355 354 354 353
304 305 305 306 306 306 310 315 314 318 324 328 327 327 329 331 330 334 337 326 324 328 325 323 323 322 324 323 323 326 325 326 327 324 325 325 324 325 324 329 329 326 332 328 319 326 330 328 329 333 335 332 331 332 332 335 327 322 329 330 331 333 330 328 324 327 333 335 332 335 340 341 343 352 359 362 363 364 362 362 359 357 355 354 352 351 352 351
304 305 306 306 306 308 312 312 314 317 323 326 324 325 332 329 330 340 334 323 326 327 323 323 323 322 323 322 323 325 325 325 326 325 324 324 325 325 324 328 329 327 328 325 325 330 328 329 332 335 334 332 331 332 333 332 328 327 328 330 334 336 338 336 329 328 326 324 327 331 331 332 339 348 355 357 359 360 363 360 357 356 353 352 351 350 351 350
304 305 305 306 307 310 311 310 313 319 323 320 320 326 331 333 338 331 319 318 323 324 322 323 322 324 325 323 323 325 325 325 328 325 324 325 325 325 324 327 329 330 332 329 329 329 330 333 336 335 334 333 330 327 328 328 328 327 330 337 337 341 355 359 355 339 319 317 328 329 328 329 333 343 351 355 359 359 360 359 355 354 351 350 349 347 348 349
305 305 305 306 307 308 310 313 316 321 319 314 320 329 332 343 348 326 315 321 323 323 325 322 324 324 323 324 324 325 324 325 327 325 325 325 324 325 325 325 329 333 339 338 327 328 334 329 330 334 337 334 329 328 326 327 328 332 343 343 326 330 343 346 347 335 315 320 333 331 328 326 326 338 350 353 359 359 357 358 356 351 349 348 347 346 346 348
305 306 306 307 307 308 311 315 315 315 312 314 324 338 345 342 332 323 326 330 323 324 326 322 323 325 324 324 324 325 324 326 326 325 326 325 325 328 325 328 333 323 322 329 324 325 334 331 329 330 335 337 331 330 327 331 337 336 346 341 326 326 328 328 333 326 316 324 329 329 329 326 331 348 354 353 354 355 355 355 353 350 348 347 346 346 346 346
305 307 307 308 309 309 310 312 312 311 313 321 330 349 357 337 326 330 336 330 323 326 327 324 325 325 324 323 324 326 323 325 327 326 327 325 325 329 324 329 335 321 321 324 319 319 326 333 337 328 329 335 333 330 323 326 332 327 335 334 327 329 325 324 330 322 318 324 321 326 330 328 340 351 352 354 349 350 354 351 351 348 345 346 345 345 346 344
306 307 307 309 310 310 312 311 311 311 315 325 336 346 341 330 334 341 337 333 332 329 326 326 325 324 324 324 326 326 322 323 328 325 326 326 323 325 326 325 326 328 332 324 317 320 318 322 336 331 325 330 333 336 332 335 334 324 336 337 325 329 326 321 325 321 321 325 323 327 330 329 340 344 345 351 347 347 353 349 348 346 343 346 344 345 346 343
307 307 308 311 311 312 313 312 313 315 318 333 349 343 333 331 338 339 335 337 334 330 330 327 325 324 322 324 327 325 324 322 325 325 325 326 323 325 329 326 324 331 331 320 319 324 316 318 338 334 325 331 330 333 338 342 333 324 333 332 320 330 335 323 324 329 327 324 324 332 336 340 351 352 348 349 346 348 351 347 347 346 344 346 345 344 345 344
307 308 310 311 312 314 313 314 322 323 326 344 346 333 336 342 337 333 336 336 329 329 330 325 324 322 317 322 327 326 324 323 325 326 323 325 325 326 329 328 325 327 327 326 327 326 315 320 338 330 325 333 330 330 334 331 330 328 325 323 320 332 343 325 319 332 330 319 321 333 345 352 356 355 350 348 348 349 348 346 346 345 346 346 345 345 344 344
307 313 316 314 315 316 314 317 326 329 336 347 338 332 344 345 334 335 339 333 329 331 327 322 323 320 315 317 323 327 326 323 324 323 321 322 323 325 328 327 326 325 327 331 329 329 324 322 332 334 325 328 330 330 333 330 333 329 321 325 328 328 340 332 321 328 327 319 326 338 349 352 346 347 350 349 349 348 346 346 345 345 346 344 344 344 343 343
314 318 318 318 322 321 318 319 324 332 343 348 348 352 352 338 331 333 333 331 330 329 327 322 321 322 319 316 320 329 325 320 322 322 320 320 322 325 327 327 327 325 326 331 325 329 331 321 328 339 328 328 338 335 329 329 333 330 324 330 328 318 323 326 322 323 320 319 325 331 343 349 344 348 352 348 349 349 345 345 345 345 345 344 344 343 341 341
318 321 319 321 326 324 320 321 330 340 341 340 353 359 345 334 334 332 331 332 331 327 326 325 322 324 324 321 324 329 325 322 323 323 319 318 321 325 327 328 329 325 325 331 328 331 339 325 322 335 331 327 336 333 326 327 328 329 329 329 330 329 327 323 321 322 320 321 322 324 337 348 350 355 356 350 348 347 344 344 345 344 344 344 342 341 340 341
319 321 317 324 324 322 325 325 334 344 338 338 349 348 334 331 333 332 331 330 329 329 328 328 326 325 328 327 327 327 327 327 326 323 322 322 322 324 328 329 330 329 327 328 332 333 339 329 319 330 333 326 330 331 331 333 328 326 326 323 326 329 326 323 322 321 323 326 327 329 334 344 357 360 355 348 345 344 343 343 344 343 343 343 341 339 339 340
318 320 319 326 319 319 326 327 332 340 339 339 342 337 332 332 331 331 332 329 330 329 327 330 330 329 330 329 326 327 330 330 329 327 324 323 322 322 328 330 330 330 328 328 333 332 332 331 324 324 323 322 333 340 336 335 336 335 332 327 328 328 324 322 321 325 327 325 329 331 326 336 360 357 348 348 345 342 342 341 342 343 343 343 341 339 338 339
322 321 318 321 317 319 326 331 336 337 335 336 335 332 332 336 335 333 331 329 329 329 328 329 329 331 332 329 328 331 332 330 331 328 326 326 327 327 330 331 330 334 335 330 330 336 346 347 332 325 330 332 335 337 330 329 335 338 336 334 335 338 331 320 321 328 324 319 328 330 320 333 364 358 347 347 343 341 341 340 341 342 342 341 340 338 339 339
321 321 318 317 320 323 324 331 334 331 332 334 330 327 327 330 332 332 329 329 329 328 329 329 327 328 329 327 329 331 329 327 329 330 331 332 332 332 333 335 336 342 342 334 330 339 352 348 330 328 345 352 343 338 338 338 337 332 334 336 333 335 334 330 336 337 323 316 324 323 318 333 360 360 351 346 342 342 340 339 341 341 341 341 339 340 341 340
315 315 320 321 322 321 321 328 330 333 339 333 322 320 323 323 325 325 325 329 331 328 328 330 327 326 326 327 328 330 327 324 326 331 333 333 334 336 336 341 347 347 342 337 335 332 331 335 331 324 327 333 331 331 335 339 341 336 337 337 333 337 337 331 335 332 320 321 326 320 322 338 355 352 347 345 343 342 337 336 340 341 341 341 339 341 342 342
318 320 324 324 323 320 320 324 324 328 333 327 322 323 322 322 324 325 327 329 331 330 330 330 328 327 329 329 329 333 330 325 324 330 333 332 335 337 336 341 348 349 351 357 358 348 338 345 350 333 321 321 323 327 335 340 339 336 338 335 332 336 332 327 327 321 318 327 329 323 326 338 351 348 343 346 344 339 339 337 338 341 340 340 341 341 342 343
324 333 334 331 330 328 327 327 323 324 327 325 329 331 323 323 327 326 327 329 328 329 330 329 329 328 330 331 331 334 333 329 328 331 336 337 333 333 336 343 348 355 369 374 372 371 356 353 367 356 333 328 333 342 350 349 336 329 332 334 332 333 334 335 328 321 327 331 329 339 342 333 342 351 344 345 344 338 339 338 337 341 340 339 341 340 342 343
324 333 332 331 334 335 336 334 327 328 329 324 329 333 327 327 328 324 327 331 328 328 328 328 329 329 329 331 330 330 332 338 337 332 333 335 334 333 336 342 350 365 377 360 358 377 355 334 348 358 345 342 349 353 350 341 334 331 330 331 331 332 333 333 326 326 337 328 324 354 362 331 335 357 349 343 344 338 337 338 338 340 340 340 341 341 343 344
327 329 325 323 331 337 337 334 329 329 328 322 330 335 327 327 328 324 327 330 329 329 327 328 330 330 331 331 328 329 334 338 338 335 335 336 336 338 336 336 341 357 361 342 344 373 360 332 333 340 340 345 349 349 345 336 334 336 333 329 332 333 330 328 330 337 340 325 323 352 357 335 338 352 345 339 340 338 337 338 338 338 340 340 341 343 344 343
325 327 323 320 326 330 329 328 328 329 328 327 334 334 325 326 328 325 325 327 329 331 327 330 331 328 330 333 336 338 336 329 327 334 342 339 336 338 339 335 336 341 343 335 340 353 346 338 341 335 327 335 341 343 341 333 331 332 331 332 334 333 331 331 334 341 339 330 334 344 345 342 341 340 342 343 342 341 340 339 339 339 340 340 340 343 343 343
320 322 321 320 325 328 327 327 327 329 328 328 331 328 323 326 328 325 325 324 326 330 326 326 329 327 329 338 341 339 339 335 330 333 341 338 336 342 343 339 338 336 337 338 339 337 331 335 353 346 325 328 343 343 337 334 333 329 332 342 341 334 335 335 334 338 335 333 341 338 333 342 345 343 349 349 344 345 343 340 340 339 338 340 340 341 342 344
312 315 316 320 330 333 329 326 326 330 332 327 327 326 324 326 325 324 327 326 323 325 325 323 327 333 338 342 341 334 336 344 343 340 343 342 338 342 341 339 340 337 337 338 336 339 339 337 349 346 324 325 339 336 334 340 335 326 330 340 341 334 333 332 333 340 337 337 342 333 327 343 353 346 346 344 340 343 341 339 340 337 337 339 339 341 343 345
309 311 312 318 331 334 328 326 328 333 334 324 321 322 321 323 324 323 333 336 325 323 324 323 329 342 342 337 335 330 328 338 342 336 336 337 335 336 336 337 340 339 344 344 338 345 354 342 340 337 325 328 340 334 337 345 332 327 339 347 341 336 334 332 336 341 342 343 342 332 334 352 354 344 346 342 338 341 340 338 338 338 338 338 337 339 341 342
Wind_Speed
27 28 28 29 30 30 30 30 28 25 21 19 18 17 17 17 18 18 19 19 20 19 19 18 17 15 12 12 12 11 13 12 9 5 7 12 10 8 9 7 5 4 5 7 8 7 6 6 9 12 10 5 1 1 2 3 1 4 3 3 2 1 2 1 3 4 5 5 4 3 7 13 9 6 5 6 8 7 6 4 5 8 8 12 18 28 31 29
27 28 29 30 30 30 31 30 29 26 23 20 18 18 17 17 18 18 19 20 20 19 17 17 14 12 10 9 9 8 11 11 9 8 14 15 10 9 10 10 8 7 7 6 7 6 6 4 7 9 5 3 2 2 3 2 2 3 3 3 1 3 2 2 6 6 6 7 6 4 6 9 8 5 4 4 5 7 8 5 6 11 12 15 22 27 28 28
28 29 30 30 31 31 32 31 30 28 24 21 19 18 17 17 18 18 19 20 19 17 15 14 11 8 6 5 6 7 9 7 5 8 12 10 11 14 12 11 11 10 8 4 5 5 5 2 4 4 3 2 2 2 4 3 0 1 3 3 4 5 2 2 8 8 9 11 9 6 5 7 4 2 3 5 7 6 7 5 6 11 12 14 17 21 25 25
29 29 30 31 31 32 32 32 31 29 25 22 20 18 17 17 17 18 19 19 17 14 12 10 7 5 2 2 4 5 6 3 3 5 3 3 7 16 16 15 13 12 8 3 3 3 4 2 2 1 2 2 3 2 3 2 0 1 3 3 5 4 5 4 10 11 10 11 10 9 8 6 3 3 5 8 8 3 4 7 10 14 15 16 15 16 21 21
29 29 30 31 32 33 33 33 32 29 26 22 20 18 17 17 17 17 18 17 13 11 9 7 4 2 1 1 3 4 4 2 3 3 2 3 4 12 18 18 14 12 7 2 2 3 3 2 3 3 3 2 3 4 2 3 1 2 1 3 4 5 9 5 8 10 10 11 11 10 9 6 4 5 5 7 6 4 4 6 13 17 16 17 16 16 18 19
29 30 31 31 32 33 33 34 32 29 25 22 20 19 17 17 16 17 17 13 10 8 6 4 2 1 2 1 2 3 1 1 4 3 3 3 2 9 16 19 16 11 7 2 2 4 4 3 5 4 2 2 3 3 3 4 1 2 1 1 1 6 11 7 7 10 10 12 11 9 7 6 6 5 3 4 3 5 4 8 15 16 17 20 18 16 16 16
30 30 31 32 32 33 34 34 32 29 25 22 20 18 17 16 16 16 14 10 8 6 4 3 1 3 3 4 3 3 2 4 7 3 3 5 1 7 12 18 17 11 5 1 3 4 3 4 4 2 2 4 3 3 4 5 4 5 1 1 4 8 12 8 7 9 8 11 9 8 7 3 6 5 2 3 2 4 8 9 12 14 17 19 16 14 15 15
30 31 31 32 33 33 34 34 33 30 25 21 19 18 16 15 15 14 11 8 6 5 3 3 1 5 5 4 2 3 1 6 6 3 5 5 2 7 10 14 14 9 3 3 4 4 2 4 2 1 3 3 2 3 6 6 4 4 3 3 3 5 9 7 7 10 9 9 9 11 10 6 7 7 4 5 5 9 10 10 11 13 14 14 13 13 13 13
30 31 32 33 33 33 34 34 34 30 25 21 19 18 16 14 14 12 9 6 5 3 3 2 2 6 6 1 2 2 4 7 5 4 4 3 3 7 10 10 11 9 6 6 6 4 1 1 0 1 2 1 1 4 4 3 3 1 4 6 6 6 7 8 9 10 10 7 10 14 9 5 5 6 5 5 7 11 10 12 12 12 12 11 11 12 12 12
31 32 32 33 33 34 34 34 34 31 27 23 21 18 15 14 12 10 7 5 3 3 3 1 4 6 4 0 3 2 4 3 2 4 3 3 5 7 10 9 9 10 8 6 6 4 3 3 1 2 3 1 0 3 3 3 1 4 3 7 9 8 5 9 10 8 9 5 8 14 6 4 5 4 4 2 7 11 11 12 10 11 11 10 10 10 11 12
31 32 33 34 34 35 35 35 35 33 29 26 23 18 14 13 11 7 5 3 3 4 4 2 6 6 2 2 4 3 2 1 2 4 4 4 6 7 9 8 7 9 9 5 5 6 5 4 1 3 2 0 1 4 3 2 1 4 2 7 7 7 3 6 11 8 8 4 6 15 9 7 8 4 3 2 6 10 12 11 9 9 8 8 10 9 9 10
32 33 33 34 35 35 35 35 35 34 32 29 25 19 15 12 8 5 2 2 3 4 4 4 6 4 1 2 3 5 2 2 4 3 3 3 3 4 6 6 4 7 7 3 3 6 4 2 3 3 2 1 2 3 3 2 2 3 4 7 4 7 4 4 9 8 8 6 7 14 10 7 6 3 3 4 7 9 10 9 7 7 5 7 8 7 7 9
32 33 34 35 35 36 35 36 36 35 34 31 26 21 15 9 4 2 1 2 2 3 4 4 3 1 2 1 6 4 3 4 5 3 3 3 3 3 6 5 3 4 5 4 5 6 4 3 2 0 3 1 2 2 2 4 4 2 3 6 3 7 4 4 4 7 10 9 5 8 4 4 4 1 3 4 9 11 9 7 6 5 5 6 7 6 6 8
32 33 34 35 36 36 36 36 36 36 35 31 26 20 12 4 2 3 2 2 2 2 3 4 2 1 1 4 6 4 4 5 5 6 6 6 5 4 7 7 5 7 8 8 9 8 5 4 2 1 2 3 3 2 4 6 3 1 1 3 3 5 4 5 2 9 11 4 1 9 4 4 3 2 3 5 9 12 9 7 6 5 5 5 6 6 5 6
32 33 34 35 36 36 36 36 36 37 35 29 23 15 5 2 4 4 3 2 2 3 3 3 1 1 1 4 5 5 3 6 7 9 7 7 6 3 6 9 9 10 10 12 12 10 7 3 1 1 2 1 3 4 4 4 4 2 1 2 2 4 3 3 3 9 11 4 3 10 4 3 4 4 2 4 8 12 10 7 7 6 6 6 5 6 5 4
33 33 34 34 36 35 35 36 36 37 33 25 19 11 5 5 6 5 3 3 2 3 4 3 1 1 2 2 2 3 3 7 8 9 8 8 6 3 3 4 7 8 9 10 10 10 7 2 1 1 1 2 4 4 4 4 4 3 3 2 1 4 2 1 2 2 8 7 1 6 6 3 3 4 3 4 8 12 10 8 8 7 7 6 5 5 5 5
33 34 34 34 35 35 35 35 36 35 29 20 15 9 4 5 6 6 4 4 3 4 4 1 2 1 1 3 1 0 4 8 9 10 12 9 7 6 2 1 3 5 6 6 6 5 2 0 0 1 2 3 2 4 5 3 3 5 2 1 3 5 4 4 4 1 3 5 2 6 8 5 3 6 5 4 7 11 10 8 8 7 6 6 6 6 6 6
34 34 34 34 34 35 34 34 35 31 23 17 12 6 5 5 5 4 5 5 4 2 0 1 1 1 2 3 2 2 4 9 10 8 12 12 9 10 6 2 1 3 5 5 3 1 1 2 2 2 3 4 2 5 3 3 3 2 2 3 2 3 6 7 7 5 3 5 6 8 6 5 6 6 5 3 5 9 9 7 7 6 7 6 6 6 6 7
35 35 34 34 34 34 33 33 32 24 17 17 10 4 5 4 3 2 4 5 2 0 2 2 1 1 2 4 5 4 2 8 9 6 11 12 10 10 6 2 1 2 2 2 3 1 1 2 3 1 3 3 3 5 4 4 5 7 5 4 4 3 4 6 6 5 7 9 6 7 7 8 7 6 6 4 3 8 8 6 6 6 6 6 6 6 5 7
35 35 34 34 34 34 32 32 29 20 14 15 9 3 3 3 3 2 1 2 3 4 3 3 4 1 4 5 5 4 1 4 6 7 11 12 8 5 3 1 2 3 1 2 2 1 3 2 2 4 7 8 5 4 3 5 7 7 1 5 6 6 3 4 4 4 7 8 3 3 8 8 8 5 5 5 4 7 8 6 6 6 5 5 6 5 6 6
36 35 35 34 33 33 31 31 26 17 12 12 9 3 2 2 2 3 4 4 5 6 7 7 6 5 8 7 7 5 1 2 4 6 10 12 7 5 2 1 4 1 2 3 1 3 4 2 6 9 10 8 3 4 4 5 6 1 5 6 5 7 4 3 6 3 2 6 4 4 9 6 5 4 2 4 6 6 7 8 6 6 5 5 6 6 5 4
35 34 35 33 33 31 30 30 22 14 11 11 10 4 1 3 2 4 2 4 7 6 7 7 5 7 10 10 13 9 0 1 4 6 6 8 5 4 2 3 5 2 2 3 2 4 4 2 11 11 5 1 3 4 3 1 3 5 3 6 6 5 4 5 5 2 2 4 4 5 8 5 3 2 1 0 1 2 5 7 7 7 7 5 5 6 5 4
34 34 34 32 32 30 29 28 17 11 14 11 8 5 5 8 5 4 0 1 7 5 5 4 5 5 5 7 9 7 2 3 3 6 7 9 4 5 4 4 4 2 1 3 4 2 1 6 11 8 2 2 2 2 5 4 5 5 3 5 5 4 5 3 2 1 5 5 7 7 6 4 3 3 2 2 2 1 3 5 5 6 7 6 5 5 6 6
33 34 32 32 32 28 29 26 11 11 18 10 4 7 12 11 6 4 1 1 5 6 5 6 5 4 4 4 6 9 4 3 4 4 8 11 4 3 4 3 4 2 1 4 6 5 6 10 3 4 2 5 4 3 6 6 4 2 3 6 5 4 5 5 5 3 7 7 8 10 6 3 0 2 1 2 3 2 3 5 4 2 3 5 5 5 6 6
33 33 32 32 30 28 29 18 5 15 21 6 1 10 15 12 8 5 2 1 3 6 4 4 3 4 5 2 6 9 2 2 5 5 7 10 7 3 2 2 3 1 5 5 6 4 9 9 1 5 3 5 7 4 5 7 4 3 1 5 7 6 7 9 8 5 6 3 3 6 5 3 3 3 4 1 3 3 3 5 6 3 2 4 5 4 4 5
33 32 32 31 30 30 24 8 7 22 17 1 2 12 15 13 9 4 1 4 2 5 1 2 1 3 5 2 3 4 5 3 6 5 6 8 7 4 2 1 1 3 5 5 4 3 5 2 5 6 4 6 7 3 3 5 6 1 1 5 6 8 10 11 9 6 4 3 5 3 5 3 4 3 5 3 4 5 3 4 5 4 4 4 5 4 4 5
34 32 32 30 28 28 17 5 14 19 6 1 8 14 15 13 8 2 2 5 3 3 2 1 1 3 5 3 5 6 2 5 3 2 5 8 5 3 1 3 1 2 3 3 1 2 3 3 5 5 5 7 5 3 5 6 8 2 3 7 7 9 11 11 8 5 4 3 2 2 5 3 2 4 5 5 5 5 5 5 5 5 5 5 5 5 5 5
34 33 32 28 26 24 13 9 14 11 3 5 12 16 16 11 4 2 5 3 2 2 2 2 0 2 1 2 7 6 3 3 1 3 4 10 7 4 1 6 4 5 2 6 2 6 3 5 5 5 5 4 3 5 7 7 6 4 5 7 6 6 9 9 8 4 3 4 2 4 2 3 4 4 3 5 5 6 8 8 7 7 7 6 6 7 6 6
34 32 31 28 25 19 10 10 12 8 7 9 14 19 16 5 1 4 4 1 2 1 1 1 0 1 1 3 4 2 1 1 2 4 1 7 6 2 3 6 6 5 2 5 5 6 2 5 8 6 5 4 5 4 6 7 4 4 6 5 4 5 5 5 6 5 4 4 5 8 5 3 4 3 4 4 5 9 9 8 8 7 7 7 6 7 7 5
34 32 30 28 23 14 10 15 13 6 7 11 17 19 10 2 4 5 1 1 1 1 1 1 1 2 4 5 3 2 1 2 2 1 2 2 1 2 3 3 5 3 1 2 3 4 3 1 4 3 3 6 4 2 2 3 4 5 5 5 6 6 5 3 3 4 4 1 5 9 8 5 3 4 6 6 4 8 9 7 7 8 7 8 7 7 8 6
34 31 29 28 23 14 10 10 7 5 10 15 18 13 4 2 4 5 2 3 1 2 1 1 2 3 7 6 3 2 1 3 2 2 2 0 3 3 0 0 3 3 3 4 1 4 6 4 0 3 1 4 6 4 3 4 5 6 5 4 4 4 5 4 4 4 4 3 6 5 6 6 3 5 7 8 4 6 12 11 12 12 10 9 8 7 7 6
34 31 28 25 21 15 11 9 9 12 15 15 12 6 4 2 1 2 3 3 1 2 2 3 3 3 6 5 3 4 3 2 2 3 4 3 2 3 3 4 3 2 3 2 1 3 4 1 3 5 1 3 6 4 4 6 6 6 4 5 4 2 4 3 3 2 1 4 3 0 4 4 5 5 6 9 7 6 11 12 13 14 12 11 9 8 7 5
34 31 27 21 18 18 17 16 16 15 13 10 5 4 6 4 2 4 3 2 1 3 3 3 3 3 6 4 2 3 2 3 3 2 3 3 2 4 4 5 6 5 2 3 1 2 3 5 5 3 2 1 6 5 1 2 3 4 3 4 4 2 3 1 3 2 2 4 2 2 1 1 4 3 3 8 8 8 9 9 10 13 13 12 9 8 6 6
34 30 25 22 20 20 18 16 14 12 10 5 3 4 4 2 3 3 2 3 3 2 2 2 3 5 5 3 4 4 2 4 4 3 3 2 2 3 4 3 5 5 3 2 1 2 2 4 4 2 2 0 4 4 6 5 3 1 3 5 5 4 4 2 3 2 2 3 2 4 1 2 2 3 5 7 7 7 7 6 8 8 9 8 7 7 7 6
33 27 24 21 18 16 12 8 8 7 4 2 5 4 2 3 4 1 2 3 2 3 5 2 4 5 2 3 3 3 4 4 3 4 4 3 3 4 3 4 5 5 5 3 2 1 3 4 7 4 2 3 5 2 5 7 3 1 2 5 1 3 5 3 2 5 3 1 3 3 1 3 3 3 5 3 2 7 8 8 9 8 7 7 6 7 7 6
32 26 20 14 14 13 6 3 6 8 5 4 5 2 3 4 3 2 2 2 1 3 5 5 3 4 2 3 3 3 2 3 3 3 3 3 4 4 4 4 5 7 6 5 3 1 2 5 6 2 1 3 6 4 3 3 1 0 2 2 2 3 6 5 1 1 3 1 2 1 2 4 3 4 5 5 5 6 8 9 10 10 9 8 8 7 7 7
32 24 14 13 15 10 5 6 10 10 4 6 4 4 4 3 4 4 2 2 2 2 2 3 1 2 2 2 3 3 2 1 2 3 3 2 2 4 5 3 4 10 9 6 3 3 5 2 6 0 2 1 2 4 3 3 4 4 1 4 2 3 5 4 2 3 4 1 3 2 2 4 2 2 3 3 4 5 7 9 9 9 9 9 9 8 7 8
26 17 11 11 11 2 8 8 11 10 5 5 2 3 3 3 3 2 2 4 3 2 2 0 2 2 2 2 2 4 2 2 3 4 4 3 3 5 6 3 3 8 10 7 3 2 5 1 7 2 3 1 4 6 4 5 4 5 4 4 3 2 1 1 2 1 0 1 3 3 2 3 3 4 3 5 8 8 8 9 10 10 10 10 9 8 8 7
13 8 5 7 11 2 12 13 10 6 5 3 2 2 3 3 4 3 4 3 2 1 1 2 1 2 1 4 2 3 2 4 4 3 2 3 4 4 4 4 3 6 9 8 5 2 4 4 4 4 1 0 4 4 1 3 4 4 3 2 2 3 3 1 1 2 2 1 2 3 2 3 5 5 8 11 11 11 11 9 10 12 12 11 10 9 8 8
4 3 3 5 14 5 11 12 5 5 2 3 3 3 2 3 4 5 5 3 2 2 2 3 1 0 1 2 2 2 2 3 4 3 2 3 3 4 3 2 3 4 6 5 4 2 3 4 3 4 3 1 0 2 5 5 3 2 2 1 1 2 3 2 1 1 2 3 2 1 2 5 6 5 9 13 12 12 14 13 11 11 12 12 11 10 8 8
3 3 4 2 12 6 7 5 2 2 2 1 2 3 3 2 4 6 5 4 4 4 3 4 3 3 3 1 1 2 1 2 1 3 2 2 2 3 3 1 3 4 5 5 4 3 2 3 4 2 0 3 4 5 4 7 7 6 4 4 4 3 4 3 1 2 1 3 3 3 2 7 6 4 9 12 12 12 13 13 11 11 13 12 10 9 9 7
1 2 5 6 14 7 4 2 2 1 2 2 2 3 3 3 4 5 5 3 3 3 1 2 3 3 3 3 3 3 2 1 0 1 1 3 4 4 3 4 1 3 5 5 3 4 4 4 4 2 3 5 6 6 1 4 4 5 4 3 4 4 5 5 2 4 1 2 1 3 1 6 5 4 6 9 11 12 11 12 12 11 12 11 9 8 7 7
2 5 9 10 15 7 5 2 4 2 1 3 3 3 3 3 3 4 4 3 2 1 1 0 2 2 1 2 2 1 1 1 1 2 1 2 3 4 6 4 1 4 4 3 2 1 3 4 4 1 4 4 6 7 5 4 5 5 1 1 4 3 3 5 5 3 3 3 2 2 2 6 5 3 3 5 7 9 8 9 11 10 8 8 9 8 7 7
1 5 7 10 15 7 4 1 2 2 3 4 3 4 4 3 4 4 4 3 2 1 1 1 1 2 1 0 1 1 2 1 1 1 2 1 2 2 5 2 5 4 1 4 4 2 1 2 4 4 2 4 5 5 5 5 2 2 1 0 3 4 5 4 2 3 2 4 5 4 3 6 6 4 1 4 6 7 7 7 9 9 8 8 7 7 7 7
3 2 4 8 13 8 3 3 2 1 3 4 4 5 4 3 4 6 6 5 4 3 2 1 1 2 1 2 2 2 1 3 1 2 1 1 2 2 4 1 5 4 1 4 5 4 3 3 4 6 4 4 3 3 3 3 1 0 1 1 2 4 6 4 2 4 2 3 4 5 5 6 5 3 2 6 8 9 8 8 8 8 8 8 7 7 7 7
2 2 3 6 8 6 2 0 3 2 2 3 4 4 2 3 4 5 6 4 5 4 2 1 1 2 3 4 3 3 2 0 0 1 1 1 2 2 4 5 5 4 4 6 5 5 4 2 3 7 7 7 7 7 6 3 3 1 2 1 1 3 5 5 4 3 4 3 3 6 6 3 5 4 5 7 10 10 9 9 8 7 7 7 8 8 8 7
1 1 3 3 3 4 3 3 5 3 2 1 2 3 3 3 5 3 2 2 2 2 1 0 1 2 1 1 2 1 2 3 3 1 2 2 2 3 5 6 6 3 5 6 4 4 6 1 2 6 6 7 8 7 4 3 4 5 4 3 2 4 6 5 4 5 5 5 4 9 6 4 7 8 10 10 10 10 9 10 10 8 8 8 8 8 8 7
1 1 2 1 1 2 2 4 6 5 5 3 2 2 5 6 5 5 4 4 3 1 0 1 2 0 3 4 3 1 1 3 4 3 1 1 1 3 5 5 4 5 4 4 4 4 6 2 3 5 2 3 5 4 3 3 3 3 4 3 5 3 6 7 6 6 7 6 8 8 8 8 9 8 11 12 11 11 11 10 8 7 8 8 8 8 8 8
2 1 2 2 0 2 3 5 6 5 5 5 3 4 6 7 7 6 4 4 5 4 2 0 3 4 2 3 5 2 2 1 1 3 2 0 1 2 2 1 2 4 5 4 3 3 5 2 3 4 1 1 4 5 2 3 2 1 3 5 6 5 6 7 7 7 9 8 9 6 7 9 9 6 8 8 6 5 5 6 7 8 9 9 9 9 9 9
2 2 3 3 2 3 4 4 4 2 3 5 3 4 5 5 8 9 5 2 4 5 3 1 5 4 0 4 6 3 5 6 4 4 4 3 1 1 2 3 2 2 4 4 2 3 3 1 1 4 2 3 4 1 2 3 3 2 4 4 4 5 5 4 3 4 5 6 8 4 4 8 7 4 4 5 7 8 7 8 9 10 10 10 10 10 10 9
4 4 4 2 2 3 3 3 4 2 3 4 3 4 5 5 8 9 6 2 2 5 6 5 6 3 3 4 7 3 5 7 7 7 7 6 5 4 3 3 5 3 2 2 1 3 4 1 1 5 2 5 4 2 2 2 3 1 7 7 5 4 4 3 3 3 5 5 4 2 3 7 6 2 2 4 9 12 12 12 10 9 10 12 12 11 10 9
8 4 4 2 2 3 4 3 4 3 2 3 4 5 5 5 8 8 4 4 5 7 9 7 2 3 6 5 4 1 6 5 7 7 5 4 4 3 1 3 7 6 4 3 2 1 4 4 2 3 3 4 5 1 2 4 4 4 7 5 4 4 4 4 4 4 6 6 5 4 6 6 4 5 6 5 8 10 12 13 12 11 12 11 12 11 10 10
Wind_Direction
355 356 355 354 353 353 353 351 349 346 343 338 334 333 332 332 331 330 328 326 323 318 314 311 310 311 311 311 314 316 319 317 307 291 245 245 249 232 220 223 229 257 280 298 316 335 355 38 22 1 359 355 16 300 268 199 147 61 73 65 12 345 59 101 130 128 136 116 82 80 105 113 113 110 110 89 84 94 85 43 59 58 68 105 119 133 141 143
355 356 355 355 354 354 354 352 350 347 343 338 333 329 328 328 327 328 326 325 323 319 316 313 313 312 308 310 311 318 323 317 312 280 252 252 251 239 224 220 226 247 272 307 342 22 46 33 352 352 11 356 318 277 311 296 95 92 119 74 283 203 81 82 115 112 123 121 114 101 88 107 126 136 118 102 107 102 83 49 61 80 87 104 121 134 140 144
355 356 355 355 354 355 355 353 351 348 344 339 333 328 326 326 325 325 324 324 323 320 319 316 314 311 306 307 312 326 329 328 321 271 262 263 239 230 220 216 223 241 268 310 356 42 66 20 317 339 29 342 298 295 329 324 130 123 113 69 252 201 77 86 127 127 134 131 120 104 86 96 130 127 89 119 115 104 116 118 94 103 114 120 128 134 139 144
355 355 355 355 354 355 354 354 352 348 344 339 334 330 327 326 325 323 323 325 324 322 321 320 317 307 309 317 322 333 337 341 279 245 263 305 223 217 212 214 222 236 258 304 341 25 59 32 310 360 43 323 313 344 323 302 286 99 117 158 227 158 96 129 138 136 135 127 119 118 106 92 82 76 108 126 105 93 172 164 140 133 134 132 136 132 135 142
354 354 354 354 354 354 354 354 352 349 345 340 336 332 330 329 325 322 323 324 322 321 322 323 318 305 112 350 337 337 358 62 239 247 300 319 224 212 210 209 216 229 244 292 326 19 43 55 62 54 35 326 347 11 305 280 72 108 178 191 216 123 114 154 147 130 127 117 113 115 108 113 107 89 131 132 122 191 203 169 147 141 143 141 140 131 132 140
354 353 353 353 353 354 354 354 352 350 346 342 338 334 333 330 325 324 323 324 321 320 324 320 311 161 134 103 13 357 73 150 262 272 320 325 218 209 208 207 210 223 241 296 2 41 36 36 46 46 23 349 8 5 284 283 61 113 288 339 214 140 129 163 154 128 127 118 117 121 117 136 124 101 132 123 162 203 147 145 147 141 143 142 140 133 134 143
352 352 352 352 352 353 353 353 352 350 347 344 341 337 335 331 328 326 324 325 319 322 327 316 281 180 151 111 62 41 89 257 269 271 327 341 147 181 192 201 206 217 237 360 56 65 47 35 38 92 62 7 2 346 313 321 44 103 168 114 152 148 136 157 146 123 124 118 119 115 101 101 101 97 59 38 104 129 107 128 136 134 138 138 137 133 135 141
351 351 351 351 352 352 352 352 352 351 349 346 343 339 336 332 329 325 324 323 319 331 330 314 238 186 164 129 95 40 5 255 261 277 307 323 130 152 168 188 198 203 172 106 97 98 81 48 46 130 56 2 356 341 328 341 22 103 161 158 144 137 130 138 127 120 114 108 108 96 91 91 89 93 47 20 94 109 109 124 126 130 136 135 137 135 135 138
350 350 351 351 350 351 351 351 352 351 351 350 346 340 335 331 326 323 325 323 329 341 336 335 204 174 159 156 95 70 260 248 263 280 286 279 191 165 173 185 191 177 123 117 120 110 138 74 292 98 68 290 340 334 326 10 346 234 157 138 134 130 129 129 117 117 114 109 111 98 89 89 79 85 47 20 112 115 117 126 129 134 137 137 139 140 141 141
349 349 350 349 350 350 350 350 351 352 353 352 347 341 334 328 321 321 325 325 345 353 354 73 170 154 140 37 96 129 249 241 260 259 263 237 208 194 196 200 194 166 127 128 149 152 173 167 225 103 117 223 278 296 306 83 316 268 152 117 131 130 131 130 113 108 104 91 106 99 78 23 19 61 66 20 127 122 121 126 134 136 139 143 143 148 149 148
348 349 349 349 350 350 349 350 350 352 352 351 347 341 332 324 316 316 325 335 12 22 21 122 146 136 124 67 113 183 238 158 235 252 262 232 210 212 208 210 203 170 145 144 193 211 203 186 177 83 108 343 309 282 289 165 241 279 109 90 108 104 94 124 117 123 103 70 103 98 77 24 15 35 96 148 130 121 120 122 131 133 141 146 146 155 154 154
348 348 349 349 349 349 349 349 349 351 351 350 346 337 328 318 307 302 310 356 31 42 47 114 128 119 67 46 194 226 246 236 263 254 237 220 207 212 198 199 205 183 171 171 245 247 233 200 81 60 261 314 341 304 305 270 358 343 92 103 102 87 108 151 124 140 117 125 139 96 67 9 4 24 71 124 120 107 106 111 118 122 133 140 145 154 153 159
348 348 348 349 349 348 349 348 349 350 349 348 342 333 325 310 293 266 219 53 59 64 75 122 136 7 36 269 237 255 288 259 257 222 177 171 164 160 180 188 195 205 207 215 257 269 256 232 107 84 234 171 289 280 358 349 31 10 76 112 107 78 130 202 139 136 126 146 156 82 67 323 329 24 89 125 121 105 98 100 106 108 119 131 141 150 154 164
348 348 348 348 348 348 348 348 349 349 348 347 341 333 328 301 213 183 156 101 90 104 118 134 151 6 71 251 269 317 278 230 229 209 171 176 174 156 191 204 213 222 226 237 257 272 275 255 214 255 222 177 252 305 17 358 30 68 23 73 87 106 174 246 191 138 129 171 88 77 122 229 256 228 127 138 123 110 104 101 105 105 110 123 137 146 150 162
347 347 347 347 347 348 348 348 349 348 346 347 346 346 359 127 165 164 140 115 95 114 139 122 128 112 37 276 299 343 223 193 220 214 182 189 183 157 198 211 226 233 240 249 259 275 289 285 200 195 256 295 33 43 15 341 358 49 119 328 15 118 203 277 205 152 134 171 83 90 125 223 218 210 147 137 123 112 109 108 109 103 101 109 120 128 123 111
346 346 346 346 346 347 348 348 350 346 345 351 357 6 60 118 140 143 126 105 83 121 132 93 37 109 77 287 332 11 185 190 221 214 199 206 201 207 211 216 245 255 260 260 265 280 294 296 176 160 239 360 58 80 31 12 348 356 110 214 240 131 162 166 185 176 132 152 78 94 141 205 219 191 147 137 131 116 112 113 108 103 99 98 101 105 104 93
345 345 345 345 345 346 347 348 349 345 345 357 4 16 71 116 130 135 124 95 89 138 143 88 360 30 269 279 304 225 199 202 219 214 211 216 218 235 241 314 288 301 306 293 284 292 315 10 25 12 42 38 74 91 45 15 311 322 56 175 230 152 147 151 154 225 123 132 60 94 143 174 162 151 145 154 143 119 114 119 110 105 99 91 94 94 95 99
344 343 343 343 343 345 346 348 349 347 349 360 6 32 82 118 126 123 122 102 94 122 173 284 346 47 266 290 281 243 201 197 207 212 212 214 223 230 224 217 352 9 355 340 326 322 336 358 55 16 354 11 49 93 101 233 208 233 205 173 232 161 150 161 163 176 141 109 114 117 134 150 129 134 141 154 144 118 113 118 110 104 99 97 98 97 98 97
341 342 341 342 342 344 345 348 349 348 354 359 3 74 90 101 117 117 127 109 97 260 308 246 173 65 248 273 283 282 220 185 191 203 212 214 220 224 225 234 87 70 39 360 330 320 112 28 33 356 316 291 201 148 168 199 182 207 214 155 159 159 155 166 164 165 131 107 119 138 138 143 139 145 144 135 120 112 111 107 105 103 98 101 100 99 104 95
340 339 339 340 341 341 344 347 348 349 358 359 357 93 79 27 23 353 282 171 207 234 268 218 177 270 271 275 297 291 207 174 186 207 217 212 196 181 205 257 72 72 103 170 268 309 99 79 277 227 234 243 210 151 177 199 216 232 157 113 152 150 153 166 140 141 127 98 42 112 125 134 142 152 154 134 116 113 117 113 108 110 107 112 113 109 104 98
338 338 338 338 338 339 343 346 347 352 3 6 8 59 113 14 15 325 312 280 245 220 243 241 198 240 259 262 283 275 167 168 225 235 222 209 173 141 203 130 100 28 243 177 166 360 60 81 255 231 223 237 169 146 239 235 228 234 104 114 120 135 143 124 118 125 118 95 55 92 109 108 125 143 162 133 133 140 139 132 129 126 121 122 122 119 111 103
337 337 336 336 336 337 341 344 346 356 11 19 27 58 188 343 300 261 302 306 286 223 222 246 224 252 261 255 260 259 242 150 253 267 211 182 156 166 219 100 124 207 242 142 88 2 19 259 253 249 220 154 113 169 226 255 111 81 115 124 104 129 106 70 103 75 9 97 109 118 113 93 68 87 26 61 141 168 147 140 146 142 136 142 138 130 124 109
336 336 336 335 335 335 339 342 342 2 9 8 24 36 346 345 321 282 106 285 296 261 211 211 204 234 260 261 241 215 199 176 215 268 184 152 154 176 152 95 127 157 72 127 150 135 311 247 247 260 212 124 33 139 130 101 88 92 139 116 112 163 121 104 171 42 22 85 128 127 101 67 58 65 9 349 6 103 128 127 140 147 147 152 148 137 134 127
336 336 336 335 334 334 338 338 337 5 358 348 22 21 2 352 329 324 43 169 293 284 235 197 194 206 217 244 180 165 200 187 171 253 176 151 149 155 150 139 121 108 220 182 160 164 244 253 254 30 77 140 89 75 114 105 70 63 138 121 136 174 127 131 161 103 43 58 118 116 72 355 106 151 249 11 66 109 129 129 132 152 149 133 125 126 129 134
338 338 336 336 335 333 335 336 347 353 346 334 72 2 1 358 339 333 32 79 300 289 265 197 204 223 207 185 162 164 159 218 203 214 173 159 158 140 175 177 114 170 220 183 150 182 251 260 110 70 62 112 109 111 130 120 91 353 258 156 161 148 116 115 123 101 64 61 187 128 92 286 274 199 210 212 130 147 164 157 150 162 161 129 126 128 123 126
339 337 337 337 335 334 338 346 342 340 336 282 354 345 347 353 349 335 75 56 314 279 272 167 170 207 199 154 158 129 57 296 242 198 165 175 174 135 144 215 56 212 202 165 148 199 254 308 103 141 135 100 98 115 170 134 102 47 208 154 139 112 115 131 125 106 113 184 221 138 119 230 281 228 202 195 174 177 196 184 166 172 180 165 148 138 139 141
339 337 337 335 335 339 342 317 323 332 325 249 338 338 338 344 347 319 74 45 308 259 168 192 11 165 190 169 138 108 96 269 274 175 172 178 182 72 133 231 10 237 209 103 3 249 178 79 90 127 108 96 98 132 198 145 107 160 196 128 128 123 133 153 139 126 167 165 127 102 107 128 259 239 193 173 176 198 214 202 185 186 189 182 158 148 164 173
337 337 336 333 335 338 328 301 318 325 299 312 330 334 337 340 342 110 83 66 271 266 151 218 302 156 178 134 144 141 204 231 128 246 196 162 170 61 77 225 184 215 214 102 261 269 162 156 173 145 89 104 164 192 187 134 100 216 195 136 146 143 140 154 141 125 138 113 152 228 124 110 260 259 161 150 181 213 218 204 193 191 191 187 165 160 179 189
335 335 334 331 331 334 326 303 304 303 308 321 328 330 333 339 43 78 80 103 254 305 144 123 57 199 45 99 170 195 286 142 175 249 154 143 179 98 160 212 170 197 225 122 200 255 199 185 182 141 109 169 210 207 172 137 114 192 162 113 68 72 89 122 129 119 107 112 203 223 182 149 266 256 153 155 212 218 210 198 194 191 187 185 175 171 184 191
334 333 333 330 328 330 322 302 294 306 328 324 325 327 331 40 71 66 74 225 225 288 243 109 209 182 110 123 209 279 293 254 253 270 70 109 341 46 163 180 113 144 295 39 201 247 303 225 151 125 148 178 169 124 150 151 130 120 103 69 42 37 39 50 82 106 114 197 250 224 193 176 266 254 190 188 218 198 183 184 191 188 185 186 184 180 183 183
331 331 330 326 321 314 304 297 298 326 323 318 322 328 350 68 67 90 187 235 212 293 310 176 206 144 137 153 199 224 214 277 293 124 152 352 33 36 80 61 58 57 6 3 305 294 339 21 52 275 202 127 100 80 6 5 76 91 74 69 63 2 8 23 360 44 112 240 267 233 178 159 230 254 215 220 239 170 173 185 185 182 184 186 187 187 183 177
330 329 325 320 312 293 269 270 290 303 307 314 324 348 70 63 28 151 235 293 322 260 250 201 212 177 165 166 185 191 180 249 243 148 167 178 152 172 185 191 176 54 343 293 303 333 337 323 278 299 292 111 97 85 1 5 42 69 62 68 77 1 5 14 330 8 170 239 270 25 116 148 232 249 224 231 237 189 184 188 180 176 179 183 187 186 178 173
328 327 323 316 305 286 274 280 287 292 303 318 344 43 78 82 232 218 245 310 220 226 224 188 186 146 144 149 207 199 171 229 231 172 177 163 165 223 236 207 165 122 192 219 109 31 331 310 317 346 312 91 108 118 136 360 39 82 109 105 101 84 60 334 280 315 282 258 291 344 77 200 271 274 239 243 234 203 190 182 175 174 176 180 182 176 170 175
328 328 323 313 300 288 283 284 281 282 296 328 54 76 82 116 241 232 227 262 250 255 270 199 154 118 133 179 216 179 156 238 215 151 169 118 109 242 261 234 170 122 123 154 139 136 125 308 289 191 241 292 107 150 165 138 98 130 153 129 130 146 142 193 228 202 245 264 307 323 291 182 251 257 253 259 237 191 164 148 151 159 167 169 167 164 166 174
329 327 323 312 296 288 285 272 260 253 261 35 68 86 140 209 250 242 224 254 295 314 305 301 122 126 193 255 251 182 175 223 200 140 162 169 178 209 217 218 192 135 115 149 224 150 133 243 256 242 231 144 123 171 153 111 69 276 126 90 93 189 146 129 177 174 176 292 318 316 238 200 218 269 304 309 179 150 135 132 139 148 161 160 160 169 170 178
332 333 329 308 290 290 281 199 172 174 170 81 67 129 194 221 228 177 219 256 331 310 320 353 79 131 227 281 301 267 210 212 191 162 194 200 198 207 213 225 188 158 145 154 200 177 137 255 275 304 280 154 144 167 152 110 123 277 75 102 234 165 117 112 174 56 70 75 292 304 283 298 317 318 336 37 95 126 133 145 153 158 164 165 171 180 178 184
336 338 323 297 301 292 231 178 154 153 132 82 102 210 220 227 213 195 256 314 303 293 23 19 29 143 194 258 303 287 254 239 203 181 211 231 222 212 220 256 190 177 173 153 189 203 148 250 291 217 153 251 137 117 50 38 113 119 170 201 183 79 76 101 130 12 37 199 284 319 255 288 332 308 322 73 129 163 159 158 160 163 168 174 182 185 185 187
333 332 307 310 332 265 177 166 153 140 82 76 135 241 216 223 242 235 315 336 309 313 70 142 217 135 153 174 281 291 228 205 218 190 188 212 241 212 187 205 207 193 189 161 171 207 120 117 293 273 152 311 11 71 39 353 54 113 170 167 106 90 29 45 117 123 103 223 289 309 275 248 211 224 228 193 190 187 176 167 166 173 177 181 188 188 188 188
333 333 311 5 24 109 168 157 148 111 63 106 191 253 220 243 269 262 283 306 285 249 154 208 185 71 120 163 201 277 229 196 207 189 172 189 231 233 180 184 208 199 191 166 161 187 111 121 264 290 142 52 8 56 159 298 2 57 82 71 57 132 156 165 143 165 180 195 266 302 321 256 230 213 192 197 196 182 178 179 178 182 184 186 189 186 185 189
1 351 276 56 44 58 165 154 113 67 87 175 195 231 262 277 269 263 262 244 237 243 193 190 169 61 262 206 205 243 232 212 183 161 207 199 219 258 241 187 167 162 159 137 128 133 98 120 189 289 336 109 173 210 185 185 167 103 77 48 318 80 117 162 109 105 140 150 187 237 290 263 250 209 187 193 194 184 183 183 183 186 188 191 191 183 182 187
4 13 242 54 29 29 155 146 33 93 160 233 204 232 289 294 272 286 282 218 213 246 200 174 174 176 196 225 252 213 223 278 174 144 199 196 189 242 269 262 186 152 122 115 124 140 134 129 149 197 269 166 230 257 200 180 173 154 155 181 176 134 122 132 324 312 128 135 172 171 241 268 256 203 189 187 187 193 188 179 181 189 192 193 191 183 180 181
20 358 260 340 359 352 114 108 300 148 163 237 219 238 276 277 266 291 302 267 220 241 236 171 178 179 187 201 217 198 166 258 319 90 180 196 182 202 270 309 225 132 112 131 167 167 143 108 112 167 214 205 253 290 269 164 151 131 142 160 148 131 117 129 200 260 189 108 141 133 203 270 261 215 201 191 187 191 187 179 183 190 193 191 186 179 178 182
88 291 283 350 3 3 85 60 301 330 258 249 253 258 265 279 275 283 301 302 264 261 359 263 180 161 208 212 188 178 157 177 161 132 180 236 211 228 272 287 98 73 80 132 180 154 109 84 86 13 309 310 312 330 4 39 81 106 109 93 127 141 133 146 174 182 160 172 159 118 263 269 279 284 229 198 180 176 181 185 184 187 191 188 181 174 176 188
304 278 278 345 0 15 101 175 265 276 285 300 317 293 278 263 244 248 266 270 255 241 82 234 192 142 187 182 131 209 209 178 234 188 139 171 222 279 298 238 131 83 56 171 164 144 125 101 98 86 12 344 347 348 343 343 38 132 265 285 135 117 103 115 125 109 169 213 159 142 231 252 279 320 121 157 159 169 188 192 185 186 186 182 179 175 182 191
312 276 256 318 351 22 119 173 155 213 303 336 319 296 295 277 245 228 233 250 247 213 178 252 205 135 113 61 45 331 222 157 235 319 64 141 253 316 332 340 114 102 193 171 140 117 116 132 120 120 148 181 195 220 247 267 253 231 294 203 150 112 117 142 122 104 214 234 147 155 226 263 289 320 140 161 169 182 193 191 191 193 183 176 176 178 186 192
351 7 301 313 351 27 63 82 67 67 352 7 325 294 268 278 285 238 216 243 258 222 182 234 200 88 45 47 41 341 323 148 286 353 123 194 270 296 336 4 55 92 109 100 87 85 96 100 115 133 162 183 190 209 219 179 147 208 266 245 165 123 118 114 103 136 194 179 175 215 217 255 280 235 194 191 186 189 191 186 190 192 178 173 176 182 189 193
34 10 357 342 336 3 12 10 29 26 334 341 294 284 278 284 306 298 240 247 259 229 195 305 149 148 172 118 90 305 305 338 346 355 160 180 268 307 348 24 32 31 67 66 43 76 97 70 124 139 178 202 188 198 213 166 163 196 219 263 249 157 136 136 166 201 168 132 258 253 202 199 251 226 206 205 195 191 193 188 187 180 170 174 177 183 191 196
9 348 7 26 282 326 352 339 345 339 318 302 247 311 342 337 343 344 314 315 334 346 23 352 15 45 211 180 139 175 286 352 342 318 312 74 55 357 358 16 2 347 31 48 16 84 110 160 182 155 208 234 200 218 213 165 176 188 183 237 270 213 170 184 208 200 159 166 244 240 182 199 242 234 216 209 193 190 191 180 171 163 165 174 177 182 192 200
6 10 334 358 307 255 265 291 307 313 332 344 351 12 4 353 352 338 295 312 339 345 65 83 315 330 281 173 125 131 205 161 309 285 276 52 80 82 45 3 332 351 44 63 14 71 113 178 194 148 107 278 248 258 223 125 114 258 219 222 245 248 217 209 215 198 183 208 240 222 192 223 243 233 224 210 170 155 149 137 149 164 170 175 177 185 196 201
10 340 334 354 331 286 271 292 311 331 7 9 15 2 349 356 356 332 291 274 316 315 20 24 293 315 208 154 115 121 206 184 179 223 187 146 149 167 171 186 191 7 37 63 16 41 90 211 230 99 92 284 288 302 102 114 134 221 273 264 264 285 282 256 233 189 186 241 262 242 218 253 257 227 211 182 135 126 139 159 173 178 175 175 181 191 197 197
328 288 321 347 309 325 336 321 338 33 24 6 10 348 336 353 356 329 292 277 323 329 344 314 288 335 56 95 103 124 226 194 181 211 197 169 185 196 202 191 160 121 53 76 50 48 86 136 31 77 113 264 295 55 102 92 99 308 295 287 276 281 281 272 246 190 186 222 249 215 217 255 255 192 147 162 155 154 165 174 175 180 182 181 185 192 194 191
348 310 338 346 254 346 10 332 344 44 64 356 349 336 330 338 341 336 314 312 343 356 344 320 283 84 57 47 70 328 279 237 207 223 209 172 177 171 183 184 152 139 146 131 92 90 125 132 134 118 150 258 292 355 78 49 31 318 279 240 214 230 256 285 286 242 208 176 164 200 227 234 209 149 136 161 172 172 177 177 177 185 188 188 190 190 190 190